1485086400.75,65198,10.38,74232.3,3.17,-36.49,-36.67,0,*77
1485086401.95,65199,10.38,74236.8,3.17,-36.67,-36.85,0,*76
1485086403.18,65200,10.38,74236.0,3.17,-36.67,-36.79,0,*76
1485086404.37,65201,10.38,74236.5,3.17,-36.67,-36.85,0,*74
1485086405.62,65202,10.38,74236.0,3.17,-36.61,-36.79,0,*72
1485086406.84,65203,10.38,74236.8,3.17,-36.43,-36.61,0,*7A
1485086408.05,65204,10.38,74236.3,3.17,-36.67,-36.67,0,*7D
1485086409.25,65205,10.38,74234.5,3.13,-36.67,-36.73,0,*7D
1485086410.5,65206,10.38,74238.0,3.15,-37.03,-37.09,0,*77
1485086411.77,65207,10.38,74236.3,3.15,-36.91,-37.09,0,*7C
1485086413.02,65208,10.38,74232.8,3.15,-37.03,-37.09,0,*79
1485086414.24,65209,10.38,74236.8,3.15,-36.85,-37.03,0,*7D
1485086415.49,65210,10.38,74236.0,3.15,-37.03,-37.21,0,*7A
1485086416.74,65211,10.38,74240.8,3.15,-36.85,-36.91,0,*7E
1485086418.01,65212,10.38,74236.3,3.15,-36.91,-37.09,0,*78
1485086419.26,65213,10.38,74238.8,3.15,-36.85,-37.09,0,*7C
1485086420.48,65214,10.38,74236.8,3.13,-36.73,-36.91,0,*74
1485086421.76,65215,10.38,74236.3,3.15,-36.91,-37.09,0,*7F
1485086423.01,65216,10.38,74238.3,3.15,-37.21,-37.27,0,*7A
1485086424.26,65217,10.38,74238.8,3.13,-37.09,-37.21,0,*71
1485086425.51,65218,10.38,74234.3,3.15,-36.91,-37.03,0,*78
1485086426.78,65219,10.38,74232.8,3.15,-37.09,-37.21,0,*79
1485086428.03,65220,10.38,74234.0,3.13,-37.09,-37.09,0,*7F
1485086429.26,65221,10.38,74232.8,3.15,-36.85,-37.03,0,*77
1485086430.47,65222,10.38,74236.3,3.15,-36.67,-36.85,0,*77
1485086431.68,65223,10.38,74238.3,3.13,-36.67,-36.73,0,*79
1485086432.9,65224,10.38,74236.5,3.15,-36.67,-36.85,0,*71
1485086434.17,65225,10.38,74234.5,3.15,-36.91,-37.09,0,*7C
1485086435.44,65226,10.38,74238.0,3.15,-37.09,-37.09,0,*7F
1485086436.67,65227,10.38,74232.5,3.13,-37.03,-37.21,0,*78
1485086437.89,65228,10.38,74234.0,3.13,-37.09,-37.27,0,*7B
1485086439.12,65229,10.38,74236.3,3.13,-37.03,-37.21,0,*76
1485086440.32,65230,10.38,74234.3,3.13,-36.85,-37.03,0,*71
1485086441.52,65231,10.38,74232.5,3.13,-36.73,-36.85,0,*76
1485086442.72,65232,10.38,74234.3,3.13,-36.85,-37.03,0,*73
1485086443.92,65233,10.38,74232.3,3.13,-36.55,-36.85,0,*70
1485086445.13,65234,10.38,74234.8,3.13,-36.55,-36.67,0,*7B
1485086446.36,65235,10.38,74232.0,3.15,-36.55,-36.67,0,*7C
1485086447.6,65236,10.38,74234.8,3.15,-36.55,-36.49,0,*73
1485086448.83,65237,10.38,74232.5,3.15,-36.43,-36.67,0,*79
1485086450.06,65238,10.38,74234.8,3.13,-36.49,-36.67,0,*7A
1485086451.28,65239,10.38,74234.0,3.15,-36.55,-36.85,0,*7C
1485086452.51,65240,10.38,74232.5,3.15,-36.43,-36.55,0,*78
1485086453.7,65241,10.38,74236.3,3.13,-36.67,-36.85,0,*74
1485086454.95,65242,10.44,74238.8,3.15,-36.49,-36.73,0,*74
1485086456.18,65243,10.38,74234.0,3.15,-36.55,-36.67,0,*7D
1485086457.41,65244,10.38,74236.5,3.13,-36.49,-36.67,0,*71
1485086458.63,65245,10.38,74234.5,3.15,-36.67,-36.85,0,*76
1485086459.88,65246,10.38,74234.3,3.15,-36.49,-36.55,0,*74
1485086461.1,65247,10.38,74236.0,3.13,-36.43,-36.49,0,*74
1485086462.38,65248,10.38,74236.0,3.15,-36.25,-36.49,0,*7D
1485086463.63,65249,10.38,74232.8,3.15,-36.25,-36.31,0,*73
1485086464.89,65250,10.38,74232.8,3.15,-36.13,-36.13,0,*7E
1485086466.09,65251,10.38,74234.0,3.17,-36.01,-36.19,0,*74
1485086467.29,65252,10.38,74234.3,3.17,-36.19,-36.43,0,*71
1485086468.49,65253,10.38,74232.5,3.17,-36.07,-36.07,0,*7F
1485086469.75,65254,10.38,74232.5,3.19,-35.77,-35.95,0,*7A
1485086470.97,65255,10.38,74232.5,3.19,-35.47,-35.59,0,*78
1485086472.19,65256,10.38,74234.5,3.17,-35.47,-35.65,0,*7A
1485086473.44,65257,10.38,74234.5,3.19,-35.65,-35.77,0,*76
1485086474.69,65258,10.38,74230.8,3.19,-36.01,-36.13,0,*79
1485086475.93,65259,10.38,74234.8,3.19,-36.13,-36.31,0,*7B
1485086477.17,65260,10.38,74234.3,3.19,-36.13,-36.19,0,*7B
1485086478.43,65261,10.44,74236.3,3.19,-35.95,-36.01,0,*7E
1485086479.71,65262,10.38,74234.3,3.19,-35.95,-36.13,0,*7E
1485086480.93,65263,10.44,74238.5,3.21,-36.13,-36.19,0,*73
1485086482.15,65264,10.38,74232.5,3.25,-36.13,-36.31,0,*7A
1485086483.37,65265,10.38,74234.5,3.25,-35.95,-36.07,0,*73
1485086484.6,65266,10.38,74234.0,3.25,-35.77,-35.95,0,*74
1485086485.84,65267,10.38,74234.0,3.21,-35.77,-35.95,0,*71
1485086487.03,65268,10.38,74232.3,3.25,-35.59,-35.59,0,*76
1485086488.22,65269,10.44,74238.0,3.25,-35.59,-35.71,0,*7D
1485086489.45,65270,10.38,74232.8,3.25,-35.89,-35.95,0,*72
1485086490.67,65271,10.38,74238.8,3.27,-35.89,-36.07,0,*79
1485086491.87,65272,10.38,74232.5,3.29,-36.01,-36.19,0,*78
1485086493.12,65273,10.38,74228.0,3.27,-36.13,-36.31,0,*7E
1485086494.39,65274,10.38,74232.0,3.27,-36.25,-36.49,0,*73
1485086495.65,65275,10.38,74230.0,3.27,-36.07,-36.25,0,*78
1485086496.9,65276,10.44,74236.0,3.27,-35.89,-35.95,0,*76
1485086498.15,65277,10.38,74234.5,3.27,-35.95,-36.07,0,*72
1485086499.36,65278,10.38,74234.8,3.29,-35.89,-35.89,0,*7B
1485086500.62,65279,10.38,74234.3,3.27,-35.77,-35.95,0,*78
1485086501.83,65280,10.38,74232.3,3.29,-36.01,-36.01,0,*7C
1485086503.04,65281,10.44,74236.3,3.29,-35.71,-35.89,0,*7A
1485086504.24,65282,10.38,74234.0,3.29,-36.19,-36.19,0,*7E
1485086505.44,65283,10.38,74232.5,3.29,-36.01,-36.19,0,*76
1485086506.69,65284,10.38,74234.3,3.31,-36.31,-36.49,0,*7E
1485086507.92,65285,10.38,74232.5,3.29,-35.65,-35.89,0,*7B
1485086509.16,65286,10.38,74232.3,3.29,-35.83,-36.01,0,*73
1485086510.41,65287,10.38,74234.5,3.31,-35.71,-35.83,0,*7F
1485086511.63,65288,10.44,74234.5,3.31,-36.01,-36.07,0,*7B
1485086512.88,65289,10.38,74232.3,3.31,-35.71,-35.83,0,*71
1485086514.14,65290,10.38,74232.3,3.31,-35.83,-35.89,0,*7E
1485086515.39,65291,10.38,74236.8,3.33,-36.19,-36.37,0,*7B
1485086516.67,65292,10.38,74232.0,3.31,-36.25,-36.49,0,*7C
1485086517.89,65293,10.38,74234.3,3.31,-36.31,-36.43,0,*72
1485086519.16,65294,10.38,74230.3,3.33,-36.25,-36.55,0,*75
1485086520.39,65295,10.38,74234.3,3.31,-35.89,-36.01,0,*72
1485086521.65,65296,10.38,74234.3,3.33,-35.65,-35.77,0,*73
1485086522.91,65297,10.38,74232.8,3.33,-35.83,-36.01,0,*78
1485086524.17,65298,10.38,74228.8,3.33,-36.37,-36.73,0,*7E
1485086525.45,65299,10.38,74234.5,3.33,-36.13,-36.25,0,*7A
1485086526.69,65300,10.44,74234.3,3.33,-36.01,-36.01,0,*7E
1485086527.89,65301,10.38,74234.0,3.35,-35.59,-35.59,0,*79
1485086529.09,65302,10.38,74228.3,3.35,-36.07,-36.19,0,*75
1485086530.32,65303,10.38,74232.3,3.35,-36.13,-36.31,0,*7B
1485086531.52,65304,10.38,74232.3,3.35,-36.07,-36.31,0,*79
1485086532.73,65305,10.44,74232.5,3.35,-36.19,-36.55,0,*75
1485086533.94,65306,10.44,74234.8,3.35,-36.55,-36.67,0,*7F
1485086535.15,65307,10.38,74232.0,3.35,-36.67,-36.73,0,*7A
1485086536.36,65308,10.38,74230.0,3.35,-36.55,-36.73,0,*74
1485086537.57,65309,10.38,74232.3,3.35,-36.07,-36.31,0,*74
1485086538.79,65310,10.44,74234.5,3.35,-36.19,-36.37,0,*75
1485086540.02,65311,10.38,74234.0,3.35,-36.31,-36.49,0,*77
1485086541.23,65312,10.38,74232.8,3.35,-36.31,-36.55,0,*79
1485086542.45,65313,10.38,74232.8,3.35,-36.19,-36.37,0,*76
1485086543.69,65314,10.44,74232.3,3.35,-37.03,-37.21,0,*7D
1485086544.89,65315,10.38,74230.3,3.35,-36.73,-37.03,0,*7A
1485086546.13,65316,10.44,74232.0,3.35,-36.37,-36.55,0,*7B
1485086547.39,65317,10.44,74234.5,3.35,-35.95,-36.13,0,*73
1485086548.62,65318,10.38,74234.3,3.35,-36.07,-36.13,0,*74
1485086549.82,65319,10.38,74234.3,3.35,-36.19,-36.31,0,*7A
1485086551.05,65320,10.38,74230.5,3.35,-37.33,-37.63,0,*7F
1485086552.25,65321,10.44,74232.3,3.35,-36.67,-36.85,0,*77
1485086553.48,65322,10.38,74232.0,3.35,-36.85,-36.91,0,*7D
1485086554.71,65323,10.44,74232.3,3.35,-36.19,-36.49,0,*7C
1485086555.94,65324,10.44,74234.8,3.37,-36.55,-36.73,0,*78
1485086557.2,65325,10.44,74232.3,3.35,-37.21,-37.21,0,*7F
1485086558.44,65326,10.38,74234.3,3.35,-36.49,-36.55,0,*71
1485086559.65,65327,10.44,74238.8,3.35,-36.55,-36.67,0,*7C
1485086560.91,65328,10.44,74232.3,3.35,-36.91,-36.91,0,*72
1485086562.16,65329,10.38,74230.5,3.33,-36.97,-36.91,0,*73
1485086563.44,65330,10.38,74230.5,3.33,-36.61,-36.79,0,*74
1485086564.67,65331,10.44,74234.0,3.35,-36.49,-36.67,0,*76
1485086565.91,65332,10.44,74232.8,3.33,-36.43,-36.55,0,*78
1485086567.15,65333,10.38,74232.8,3.33,-36.43,-36.55,0,*79
1485086568.38,65334,10.44,74234.5,3.35,-36.13,-36.31,0,*7F
1485086569.61,65335,10.38,74232.0,3.33,-36.01,-36.19,0,*71
1485086570.82,65336,10.44,74232.5,3.35,-35.89,-35.89,0,*7D
1485086572.03,65337,10.44,74232.3,3.35,-36.19,-36.31,0,*76
1485086573.28,65338,10.44,74238.3,3.35,-36.37,-36.49,0,*7A
1485086574.49,65339,10.44,74232.3,3.35,-36.07,-36.19,0,*7D
1485086575.73,65340,10.44,74234.3,3.35,-35.77,-35.95,0,*70
1485086576.93,65341,10.44,74232.8,3.35,-36.07,-36.19,0,*72
1485086578.19,65342,10.44,74232.8,3.37,-36.37,-36.67,0,*79
1485086579.42,65343,10.38,74230.0,3.37,-36.67,-36.73,0,*78
1485086580.64,65344,10.44,74232.3,3.37,-36.55,-36.85,0,*77
1485086581.85,65345,10.38,74234.0,3.35,-36.55,-36.67,0,*78
1485086583.13,65346,10.38,74232.3,3.37,-36.37,-36.49,0,*71
1485086584.36,65347,10.38,74230.5,3.35,-36.07,-36.13,0,*7E
1485086585.61,65348,10.38,74230.5,3.37,-36.13,-36.31,0,*76
1485086586.89,65349,10.38,74230.0,3.37,-36.37,-36.49,0,*7E
1485086588.14,65350,10.44,74234.8,3.37,-36.31,-36.37,0,*79
1485086589.39,65351,10.38,74232.0,3.37,-36.31,-36.49,0,*71
1485086590.67,65352,10.44,74234.0,3.37,-36.37,-36.49,0,*74
1485086591.92,65353,10.44,74234.3,3.37,-36.31,-36.49,0,*73
1485086593.15,65354,10.44,74232.3,3.41,-36.31,-36.31,0,*7A
1485086594.38,65355,10.44,74234.8,3.39,-36.07,-36.13,0,*71
1485086595.61,65356,10.44,74236.5,3.39,-36.01,-36.13,0,*74
1485086596.86,65357,10.44,74232.3,3.41,-36.01,-36.13,0,*7A
1485086598.13,65358,10.44,74232.5,3.41,-35.83,-35.89,0,*7C
1485086599.38,65359,10.38,74230.3,3.41,-36.01,-36.13,0,*74
1485086600.61,65360,10.44,74230.8,3.41,-35.89,-36.07,0,*78
1485086601.89,65361,10.44,74234.3,3.41,-36.25,-36.49,0,*76
1485086603.15,65362,10.38,74228.3,3.41,-36.25,-36.43,0,*7F
1485086604.39,65363,10.38,74230.5,3.41,-35.89,-35.89,0,*7E
1485086605.63,65364,10.44,74234.8,3.43,-36.07,-36.25,0,*7B
1485086606.88,65365,10.44,74232.5,3.43,-36.25,-36.25,0,*7A
1485086608.14,65366,10.44,74228.8,3.45,-36.07,-36.25,0,*7F
1485086609.34,65367,10.44,74230.8,3.43,-36.07,-36.19,0,*77
1485086610.54,65368,10.44,74232.3,3.43,-36.01,-36.19,0,*7E
1485086611.8,65369,10.44,74232.0,3.43,-35.83,-35.83,0,*76
1485086613.01,65370,10.44,74234.5,3.43,-35.77,-35.77,0,*7E
1485086614.27,65371,10.44,74232.5,3.45,-35.77,-35.95,0,*75
1485086615.53,65372,10.38,74230.0,3.43,-35.95,-35.95,0,*7C
1485086616.8,65373,10.44,74230.8,3.43,-35.83,-35.95,0,*7A
1485086618.04,65374,10.44,74232.0,3.49,-35.71,-35.89,0,*77
1485086619.3,65375,10.44,74234.0,3.51,-35.83,-35.95,0,*7F
1485086620.54,65376,10.38,74228.0,3.49,-35.71,-35.77,0,*74
1485086621.78,65377,10.44,74234.8,3.49,-35.77,-35.89,0,*72
1485086623.01,65378,10.44,74228.8,3.49,-35.59,-35.59,0,*7C
1485086624.3,65379,10.38,74228.0,3.49,-35.95,-35.95,0,*7D
1485086625.52,65380,10.38,74230.5,3.51,-36.13,-36.31,0,*72
1485086626.75,65381,10.44,74234.8,3.51,-36.13,-36.19,0,*79
1485086627.98,65382,10.44,74230.5,3.51,-36.43,-36.61,0,*70
1485086629.18,65383,10.44,74232.0,3.51,-36.31,-36.31,0,*71
1485086630.39,65384,10.44,74232.5,3.51,-36.67,-36.67,0,*76
1485086631.63,65385,10.44,74236.0,3.49,-36.67,-36.67,0,*7E
1485086632.86,65386,10.44,74230.5,3.53,-36.67,-36.85,0,*7A
1485086634.12,65387,10.44,74234.8,3.49,-36.49,-36.55,0,*71
1485086635.35,65388,10.44,74230.3,3.51,-36.25,-36.31,0,*7F
1485086636.58,65389,10.44,74232.5,3.51,-36.37,-36.43,0,*78
1485086637.84,65390,10.44,74234.3,3.51,-36.49,-36.49,0,*73
1485086639.07,65391,10.38,74230.5,3.51,-36.61,-36.67,0,*74
1485086640.28,65392,10.38,74228.8,3.51,-36.67,-36.67,0,*71
1485086641.51,65393,10.44,74232.3,3.51,-36.43,-36.61,0,*70
1485086642.74,65394,10.44,74232.5,3.49,-36.73,-36.85,0,*77
1485086643.97,65395,10.44,74232.0,3.51,-36.43,-36.61,0,*76
1485086645.2,65396,10.44,74234.5,3.51,-36.07,-36.25,0,*75
1485086646.46,65397,10.44,74232.3,3.51,-36.13,-36.25,0,*71
1485086647.71,65398,10.44,74228.0,3.51,-36.49,-36.49,0,*7B
1485086648.96,65399,10.44,74230.5,3.51,-36.49,-36.61,0,*70
1485086650.2,65400,10.44,74234.0,3.51,-35.89,-35.95,0,*70
1485086651.41,65401,10.44,74234.0,3.51,-36.07,-36.31,0,*79
1485086652.66,65402,10.44,74232.5,3.53,-36.43,-36.49,0,*77
1485086653.94,65403,10.44,74232.8,3.53,-36.61,-36.61,0,*7C
1485086655.2,65404,10.44,74232.8,3.53,-36.61,-36.67,0,*7D
1485086656.46,65405,10.44,74232.8,3.53,-36.49,-36.67,0,*76
1485086657.71,65406,10.44,74234.5,3.53,-36.79,-36.97,0,*79
1485086658.96,65407,10.44,74230.8,3.53,-36.79,-36.85,0,*7B
1485086660.2,65408,10.44,74228.5,3.53,-36.97,-37.03,0,*7B
1485086661.43,65409,10.44,74232.8,3.53,-36.67,-36.67,0,*76
1485086662.69,65410,10.44,74230.5,3.53,-36.67,-36.61,0,*78
1485086663.92,65411,10.44,74230.5,3.49,-36.67,-36.73,0,*71
1485086665.16,65412,10.44,74232.3,3.51,-36.61,-36.67,0,*78
1485086666.39,65413,10.44,74228.3,3.51,-36.61,-36.67,0,*79
1485086667.64,65414,10.44,74234.0,3.51,-36.49,-36.61,0,*72
1485086668.85,65415,10.44,74230.5,3.51,-36.07,-36.31,0,*7C
1485086670.07,65416,10.44,74228.5,3.51,-36.13,-36.31,0,*7A
1485086671.3,65417,10.44,74232.5,3.51,-36.43,-36.61,0,*7B
1485086672.53,65418,10.44,74232.5,3.51,-36.43,-36.61,0,*74
1485086673.79,65419,10.44,74232.3,3.53,-36.25,-36.31,0,*72
1485086675.05,65420,10.44,74230.8,3.53,-36.25,-36.43,0,*7D
1485086676.31,65421,10.44,74230.3,3.53,-36.07,-36.25,0,*7C
1485086677.57,65422,10.44,74232.8,3.55,-35.83,-35.83,0,*79
1485086678.79,65423,10.44,74234.0,3.55,-35.89,-35.89,0,*78
1485086680.02,65424,10.44,74234.0,3.55,-35.83,-36.01,0,*76
1485086681.25,65425,10.44,74228.5,3.57,-36.01,-36.07,0,*7A
1485086682.48,65426,10.44,74232.3,3.55,-36.25,-36.43,0,*7D
1485086683.73,65427,10.44,74230.5,3.59,-36.49,-36.37,0,*79
1485086684.99,65428,10.44,74230.5,3.57,-36.37,-36.43,0,*72
1485086686.23,65429,10.44,74230.8,3.57,-36.55,-36.55,0,*70
1485086687.47,65430,10.44,74232.5,3.57,-36.43,-36.55,0,*7F
1485086688.7,65431,10.44,74234.3,3.57,-36.43,-36.43,0,*79
1485086689.94,65432,10.44,74234.5,3.57,-36.43,-36.55,0,*7D
1485086691.19,65433,10.44,74234.5,3.57,-36.07,-36.37,0,*78
1485086692.42,65434,10.44,74236.0,3.57,-36.01,-36.07,0,*7A
1485086693.65,65435,10.44,74232.5,3.57,-36.07,-36.19,0,*72
1485086694.93,65436,10.44,74232.0,3.57,-36.61,-36.61,0,*7E
1485086696.2,65437,10.44,74234.0,3.57,-36.79,-36.91,0,*79
1485086697.41,65438,10.44,74230.8,3.59,-36.67,-36.67,0,*7E
1485086698.61,65439,10.44,74230.8,3.59,-36.67,-36.73,0,*7A
1485086699.82,65440,10.44,74232.0,3.59,-36.55,-36.67,0,*70
1485086701.1,65441,10.44,74232.3,3.57,-36.61,-36.79,0,*77
1485086702.37,65442,10.44,74232.5,3.57,-36.61,-36.61,0,*7D
1485086703.61,65443,10.44,74232.3,3.57,-36.43,-36.55,0,*7B
1485086704.82,65444,10.44,74230.3,3.59,-36.55,-36.55,0,*75
1485086706.06,65445,10.44,74232.3,3.57,-36.55,-36.55,0,*7A
1485086707.3,65446,10.44,74230.8,3.57,-36.43,-36.55,0,*7E
1485086708.54,65447,10.44,74234.5,3.57,-36.55,-36.55,0,*78
1485086709.8,65448,10.44,74232.3,3.57,-36.25,-36.31,0,*72
1485086711.03,65449,10.44,74232.3,3.57,-36.43,-36.43,0,*76
1485086712.27,65450,10.44,74230.5,3.57,-36.55,-36.55,0,*7E
1485086713.5,65451,10.44,74232.0,3.59,-36.55,-36.37,0,*75
1485086714.71,65452,10.44,74232.8,3.59,-36.55,-36.55,0,*72
1485086715.96,65453,10.44,74234.5,3.59,-36.49,-36.49,0,*73
1485086717.23,65454,10.44,74234.5,3.57,-36.79,-36.79,0,*7A
1485086718.44,65455,10.44,74232.8,3.59,-36.67,-36.67,0,*75
1485086719.69,65456,10.44,74232.5,3.57,-36.79,-36.97,0,*78
1485086720.91,65457,10.44,74232.0,3.59,-36.73,-36.91,0,*7B
1485086722.11,65458,10.44,74228.5,3.59,-37.15,-37.27,0,*79
1485086723.31,65459,10.44,74234.8,3.59,-36.67,-36.85,0,*75
1485086724.56,65460,10.44,74234.0,3.57,-36.79,-36.97,0,*7D
1485086725.8,65461,10.44,74232.3,3.57,-36.73,-36.73,0,*7C
1485086727.04,65462,10.44,74234.5,3.57,-36.55,-36.55,0,*7F
1485086728.25,65463,10.44,74232.8,3.59,-36.55,-36.55,0,*70
1485086729.52,65464,10.44,74232.5,3.57,-36.61,-36.79,0,*70
1485086730.75,65465,10.44,74232.5,3.59,-36.73,-36.91,0,*7A
1485086732.01,65466,10.44,74230.3,3.57,-36.73,-36.61,0,*78
1485086733.21,65467,10.44,74232.3,3.59,-36.55,-36.73,0,*70
1485086734.49,65468,10.44,74234.0,3.57,-36.79,-36.91,0,*73
1485086735.69,65469,10.44,74234.5,3.59,-36.85,-36.97,0,*79
1485086736.94,65470,10.44,74234.5,3.61,-36.67,-36.79,0,*76
1485086738.19,65471,10.44,74228.3,3.57,-36.79,-36.97,0,*7D
1485086739.39,65472,10.44,74230.3,3.59,-36.67,-36.73,0,*75
1485086740.65,65473,10.44,74232.5,3.57,-36.61,-36.73,0,*7C
1485086741.87,65474,10.44,74230.8,3.59,-36.31,-36.49,0,*79
1485086743.08,65475,10.44,74232.5,3.59,-36.31,-36.31,0,*77
1485086744.31,65476,10.44,74228.5,3.57,-36.55,-36.73,0,*7E
1485086745.54,65477,10.44,74232.3,3.59,-36.55,-36.49,0,*78
1485086746.79,65478,10.44,74230.8,3.59,-36.37,-36.49,0,*73
1485086748.01,65479,10.44,74232.5,3.59,-36.31,-36.49,0,*74
1485086749.23,65480,10.44,74232.3,3.59,-36.13,-36.31,0,*7D
1485086750.49,65481,10.44,74234.0,3.59,-35.95,-36.13,0,*71
1485086751.71,65482,10.44,74230.5,3.59,-36.19,-36.37,0,*73
1485086752.93,65483,10.44,74232.8,3.59,-36.31,-36.37,0,*78
1485086754.13,65484,10.44,74230.8,3.59,-36.55,-36.85,0,*74
1485086755.36,65485,10.44,74230.8,3.61,-36.31,-36.43,0,*76
1485086756.56,65486,10.44,74230.3,3.59,-36.31,-36.55,0,*79
1485086757.77,65487,10.44,74232.0,3.59,-36.55,-36.55,0,*7A
1485086758.98,65488,10.44,74232.5,3.59,-36.55,-36.67,0,*74
1485086760.21,65489,10.44,74230.8,3.59,-36.73,-36.91,0,*78
1485086761.43,65490,10.44,74232.3,3.61,-36.31,-36.31,0,*77
1485086762.68,65491,10.44,74232.8,3.61,-36.43,-36.49,0,*7C
1485086763.91,65492,10.44,74232.0,3.59,-36.49,-36.73,0,*77
1485086765.16,65493,10.44,74232.3,3.59,-36.37,-36.49,0,*76
1485086766.44,65494,10.44,74234.0,3.61,-36.25,-36.49,0,*79
1485086767.71,65495,10.44,74230.5,3.61,-36.61,-36.61,0,*72
1485086768.98,65496,10.44,74234.5,3.61,-36.49,-36.49,0,*71
1485086770.24,65497,10.44,74234.8,3.61,-36.61,-36.67,0,*76
1485086771.51,65498,10.44,74230.5,3.61,-36.49,-36.49,0,*7F
1485086772.79,65499,10.44,74230.5,3.61,-35.95,-36.13,0,*73
1485086774.04,65500,10.44,74234.8,3.61,-36.49,-36.67,0,*73
1485086775.29,65501,10.44,74230.5,3.61,-36.43,-36.61,0,*7E
1485086776.49,65502,10.44,74228.5,3.63,-36.43,-36.43,0,*7F
1485086777.72,65503,10.44,74230.5,3.63,-36.07,-36.13,0,*7B
1485086778.95,65504,10.44,74228.0,3.61,-35.77,-35.89,0,*7A
1485086780.15,65505,10.44,74234.3,3.63,-35.77,-36.07,0,*7C
1485086781.41,65506,10.44,74230.8,3.61,-36.07,-36.25,0,*79
1485086782.61,65507,10.44,74232.3,3.63,-35.71,-35.77,0,*7C
1485086783.84,65508,10.44,74228.5,3.63,-35.95,-36.07,0,*7D
1485086785.06,65509,10.44,74234.8,3.63,-36.13,-36.31,0,*74
1485086786.3,65510,10.44,74234.0,3.65,-36.19,-36.25,0,*75
1485086787.5,65511,10.44,74230.8,3.65,-36.73,-36.85,0,*72
1485086788.73,65512,10.44,74232.5,3.65,-36.07,-36.25,0,*78
1485086789.99,65513,10.44,74232.5,3.65,-36.37,-36.37,0,*79
1485086791.23,65514,10.44,74232.5,3.65,-35.83,-35.89,0,*74
1485086792.46,65515,10.44,74232.3,3.65,-36.37,-36.43,0,*7C
1485086793.68,65516,10.44,74230.0,3.65,-36.79,-36.85,0,*7F
1485086794.89,65517,10.44,74228.5,3.65,-36.55,-36.43,0,*7A
1485086796.12,65518,10.44,74232.5,3.67,-36.43,-36.43,0,*70
1485086797.33,65519,10.44,74232.0,3.65,-36.85,-37.03,0,*7C
1485086798.56,65520,10.44,74232.8,3.65,-36.61,-36.73,0,*7A
1485086799.84,65521,10.44,74232.5,3.67,-36.37,-36.37,0,*7A
1485086801.07,65522,10.44,74234.8,3.65,-36.55,-36.61,0,*7C
1485086802.32,65523,10.44,74228.8,3.67,-36.73,-36.79,0,*72
1485086803.55,65524,10.44,74234.8,3.65,-36.73,-36.79,0,*77
1485086804.78,65525,10.44,74230.0,3.65,-36.73,-36.79,0,*76
1485086806.01,65526,10.44,74232.0,3.65,-36.79,-36.73,0,*75
1485086807.24,65527,10.44,74230.5,3.65,-36.79,-36.97,0,*7E
1485086808.45,65528,10.44,74232.8,3.65,-36.85,-36.97,0,*72
1485086809.7,65529,10.44,74230.5,3.65,-36.61,-36.79,0,*79
1485086810.94,65530,10.44,74232.0,3.61,-36.79,-36.85,0,*7F
1485086812.16,65531,10.44,74232.0,3.61,-36.85,-36.85,0,*7D
1485086813.41,65532,10.44,74232.8,3.63,-36.79,-36.91,0,*7A
1485086814.61,65533,10.44,74232.3,3.63,-36.67,-36.85,0,*71
1485086815.8,65534,10.44,74230.3,3.63,-36.67,-36.85,0,*76
1485086817.05,65535,10.44,74228.0,3.63,-36.79,-36.91,0,*7D
1485086818.25,0,10.44,74228.8,3.63,-36.67,-36.79,0,*74
1485086819.48,1,10.44,74234.3,3.63,-36.61,-36.61,0,*7A
1485086820.68,2,10.44,74234.0,3.63,-36.61,-36.85,0,*73
1485086821.9,3,10.44,74230.0,3.61,-36.49,-36.43,0,*70
1485086823.13,4,10.44,74228.0,3.63,-36.49,-36.49,0,*7F
1485086824.34,5,10.44,74234.0,3.63,-36.25,-36.31,0,*7B
1485086825.51,6,10.44,74234.5,3.63,-36.67,-36.85,0,*71
1485086826.74,7,10.44,74232.3,3.63,-36.91,-36.91,0,*7C
1485086827.97,8,10.44,74234.3,3.63,-37.09,-37.21,0,*79
1485086829.17,9,10.44,74234.0,3.63,-37.03,-37.09,0,*78
1485086830.38,10,10.44,74228.0,3.63,-37.03,-37.21,0,*4A
1485086831.57,11,10.44,74228.3,3.63,-36.85,-37.03,0,*44
1485086832.75,12,10.44,74230.0,3.63,-36.67,-36.85,0,*44
1485086833.93,13,10.44,74232.5,3.63,-36.67,-36.85,0,*45
1485086835.13,14,10.44,74230.5,3.63,-36.67,-36.79,0,*41
1485086836.34,15,10.44,74230.5,3.63,-36.85,-36.91,0,*4A
1485086837.55,16,10.44,74232.3,3.63,-36.85,-36.91,0,*49
1485086838.73,17,10.44,74230.8,3.63,-36.85,-36.85,0,*4D
1485086839.97,18,10.44,74234.5,3.63,-37.09,-37.21,0,*48
1485086841.17,19,10.44,74230.5,3.63,-36.79,-36.85,0,*40
1485086842.41,20,10.44,74230.5,3.61,-36.61,-36.67,0,*4D
1485086843.59,21,10.44,74230.8,3.63,-36.67,-36.85,0,*44
1485086844.8,22,10.44,74228.3,3.63,-36.85,-36.91,0,*4E
1485086846.04,23,10.44,74228.8,3.63,-37.09,-37.21,0,*40
1485086847.24,24,10.44,74228.5,3.61,-36.85,-37.03,0,*40
1485086848.45,25,10.44,74232.3,3.61,-36.67,-36.85,0,*42
1485086849.65,26,10.44,74230.0,3.63,-36.79,-37.03,0,*43
1485086850.89,27,10.44,74230.3,3.61,-37.03,-37.21,0,*4C
1485086852.12,28,10.44,74230.0,3.63,-36.91,-37.21,0,*4B
1485086853.33,29,10.44,74230.5,3.61,-36.85,-37.03,0,*4D
1485086854.59,30,10.44,74230.8,3.61,-36.79,-36.91,0,*4C
1485086855.84,31,10.44,74230.8,3.61,-36.79,-36.91,0,*4D
1485086857.05,32,10.44,74230.5,3.63,-36.85,-36.91,0,*4F
1485086858.27,33,10.44,74230.5,3.61,-36.79,-36.85,0,*4A
1485086859.51,34,10.44,74228.8,3.61,-36.67,-36.79,0,*41
1485086860.71,35,10.44,74230.3,3.63,-36.43,-36.49,0,*47
1485086861.94,36,10.44,74228.3,3.63,-36.61,-36.79,0,*47
1485086863.12,37,10.44,74228.8,3.63,-36.67,-36.85,0,*43
1485086864.36,38,10.44,74228.8,3.63,-36.25,-36.25,0,*40
1485086865.6,39,10.44,74230.5,3.63,-36.13,-36.25,0,*44
1485086866.8,40,10.44,74232.0,3.63,-35.95,-36.07,0,*47
1485086867.99,41,10.44,74228.8,3.63,-36.43,-36.43,0,*4E
1485086869.18,42,10.44,74230.5,3.63,-36.43,-36.43,0,*4D
1485086870.36,43,10.44,74232.0,3.63,-36.31,-36.43,0,*49
1485086871.57,44,10.44,74230.8,3.61,-36.31,-36.31,0,*49
1485086872.78,45,10.44,74230.8,3.63,-36.25,-36.31,0,*4F
1485086874.02,46,10.44,74232.5,3.65,-36.37,-36.37,0,*4F
1485086875.23,47,10.44,74232.8,3.65,-36.19,-36.37,0,*42
1485086876.46,48,10.44,74232.0,3.65,-36.25,-36.37,0,*42
1485086877.65,49,10.44,74228.5,3.65,-36.01,-36.07,0,*46
1485086878.83,50,10.44,74234.8,3.65,-36.19,-36.19,0,*48
1485086880.1,51,10.44,74234.3,3.67,-36.25,-36.37,0,*48
1485086881.33,52,10.44,74230.3,3.67,-36.19,-36.25,0,*47
1485086882.59,53,10.44,74228.3,3.67,-36.37,-36.37,0,*49
1485086883.86,54,10.44,74228.8,3.67,-36.37,-36.25,0,*4D
1485086885.1,55,10.5,74232.5,3.65,-36.25,-36.25,0,*4D
1485086886.34,56,10.44,74228.5,3.67,-36.19,-36.25,0,*43
1485086887.58,57,10.44,74228.5,3.67,-36.19,-36.25,0,*42
1485086888.82,58,10.44,74228.8,3.67,-36.37,-36.43,0,*41
1485086890.06,59,10.44,74226.8,3.67,-36.43,-36.61,0,*43
1485086891.27,60,10.44,74230.8,3.65,-36.61,-36.73,0,*48
1485086892.51,61,10.44,74228.0,3.67,-36.73,-36.79,0,*42
1485086893.74,62,10.44,74228.5,3.67,-36.43,-36.61,0,*4B
1485086894.93,63,10.44,74224.0,3.65,-36.43,-36.43,0,*48
1485086896.17,64,10.44,74228.3,3.65,-36.37,-36.37,0,*4F
1485086897.41,65,10.44,74230.3,3.67,-36.25,-36.19,0,*43
1485086898.63,66,10.44,74232.0,3.67,-36.01,-36.01,0,*4F
1485086899.86,67,10.44,74228.8,3.67,-36.55,-36.61,0,*49
1485086901.08,68,10.44,74228.0,3.67,-36.73,-36.73,0,*41
1485086902.3,69,10.44,74230.8,3.67,-36.55,-36.55,0,*40
1485086903.51,70,10.44,74230.3,3.67,-36.07,-36.19,0,*47
1485086904.78,71,10.44,74230.0,3.71,-35.95,-35.95,0,*4E
1485086905.98,72,10.44,74226.5,3.71,-35.59,-35.59,0,*4D